Regional Weather Roundup
Issued by NWS

Home | Current Version | Previous Version | Text Only | Print | Product List | Glossary On
Versions: 1 2 3 4 5 6 7 8 9 10 11 12 13 14 15 16 17 18 19 20 21 22 23 24 25 26 27 28 29 30 31 32 33 34 35 36 37 38 39 40 41 42 43 44 45 46 47 48 49 50
769
ASUS44 KBMX 100910
RWRAL

ALABAMA REGIONAL WEATHER ROUNDUP
NATIONAL WEATHER SERVICE BIRMINGHAM AL
300 AM CST WED FEB 10 2016

NOTE: "FAIR" INDICATES FEW OR NO CLOUDS BELOW 12,000 FEET
WITH NO SIGNIFICANT WEATHER AND/OR OBSTRUCTIONS TO VISIBILITY.

THE REMARK "TC" DENOTES TEMPERATURE IN DEGREES CELSIUS.

ALZ001>011-014-016>018-020-101000-
NORTH ALABAMA

CITY           SKY/WX    TMP DP  RH WIND       PRES   REMARKS
MUSCLE SHOALS  CLEAR     21  14  74 W5        30.15R WCI  15
HUNTSVILLE     CLEAR     22  15  75 NW6       30.12S WCI  14
DECATUR        CLEAR     22  15  75 NW7       30.14R WCI  13
HALEYVILLE     FAIR      20  15  81 CALM      30.14R
GADSDEN        CLEAR     22  14  71 W3        30.13R
$$

ALZ012-013-022-023-030>036-040>044-101000-
WEST CENTRAL ALABAMA

CITY           SKY/WX    TMP DP  RH WIND       PRES   REMARKS
TUSCALOOSA     CLEAR     25  15  66 W3        30.20R
$$

ALZ015-024>027-033>036-040>044-101000-
CENTRAL ALABAMA

CITY           SKY/WX    TMP DP  RH WIND       PRES   REMARKS
BIRMINGHAM     PTCLDY    24  16  71 W5        30.16R WCI  18
MONTGOMERY     PTCLDY    28  15  58 W7        30.19R WCI  21
SHELBY CO ARPT CLEAR     25  15  66 NW3       30.15R
MAXWELL AFB    PTCLDY    29  15  56 W5        30.17R WCI  24
GREENVILLE     FAIR      29  14  53 NW6       30.17R WCI  23
$$

ALZ019-021-028-029-037-038-045>048-101000-
EAST CENTRAL ALABAMA

CITY           SKY/WX    TMP DP  RH WIND       PRES   REMARKS
ANNISTON       CLEAR     24  12  60 W6        30.13R WCI  17
ALEXANDER CITY CLEAR     26  18  73 NW6       30.12S WCI  19
AUBURN         NOT AVBL
$$

ALZ051>064-101000-
SOUTHWEST ALABAMA

CITY           SKY/WX    TMP DP  RH WIND       PRES   REMARKS
MOBILE         CLEAR     33  21  61 N8        30.23R WCI  26
BROOKLEY FIELD CLEAR     36  20  52 N13       30.24R WCI  27
EVERGREEN      CLEAR     29  20  69 CALM      30.20R
$$

ALZ049-050-065>069-101000-
SOUTHEAST ALABAMA

CITY           SKY/WX    TMP DP  RH WIND       PRES   REMARKS
DOTHAN         CLEAR     31  18  58 NW10      30.17R WCI  22
OZARK          CLEAR     30  18  59 NW8       30.15R WCI  23
TROY           PTCLDY    30  16  56 NW7       30.17R WCI  23
EUFAULA        FAIR      30  19  63 NW6       30.13R WCI  24
$$




USA.gov is the U.S. government's official web portal to all federal, state and local government web resources and services.